Time,TemperatureF,DewpointF,PressureIn,WindDirection,WindDirectionDegrees,WindSpeedMPH,WindSpeedGustMPH,Humidity,HourlyPrecipIn,Conditions,Clouds,dailyrainin,SoftwareType,DateUTC
2013-07-09 00:10:00,79.4,67.0,30.20,East,92,0.0,-999.0,67,-99.99,,,0.00,weatherlink.com 1.10,2013-07-09 04:10:00,
2013-07-09 00:25:00,79.6,68.0,30.20,East,92,0.0,-999.0,68,-99.99,,,0.00,weatherlink.com 1.10,2013-07-09 04:25:00,
2013-07-09 00:40:00,79.4,68.0,30.20,East,92,0.0,-999.0,69,-99.99,,,0.00,weatherlink.com 1.10,2013-07-09 04:40:00,
2013-07-09 00:55:00,79.4,68.0,30.20,East,92,0.0,-999.0,69,-99.99,,,0.00,weatherlink.com 1.10,2013-07-09 04:55:00,
2013-07-09 01:10:00,79.4,68.0,30.20,East,94,0.0,-999.0,69,-99.99,,,0.00,weatherlink.com 1.10,2013-07-09 05:10:00,
2013-07-09 01:25:00,79.4,68.0,30.20,East,93,0.0,-999.0,69,-99.99,,,0.00,weatherlink.com 1.10,2013-07-09 05:25:00,
2013-07-09 01:40:00,79.4,68.0,30.19,East,93,0.0,-999.0,69,-99.99,,,0.00,weatherlink.com 1.10,2013-07-09 05:40:00,
2013-07-09 01:55:00,79.2,68.0,30.19,East,93,0.0,-999.0,69,-99.99,,,0.00,weatherlink.com 1.10,2013-07-09 05:55:00,
2013-07-09 02:10:00,79.2,69.0,30.18,East,93,0.0,-999.0,70,-99.99,,,0.00,weatherlink.com 1.10,2013-07-09 06:10:00,
2013-07-09 02:25:00,79.2,69.0,30.18,East,92,0.0,-999.0,70,-99.99,,,0.00,weatherlink.com 1.10,2013-07-09 06:25:00,
2013-07-09 02:40:00,79.4,69.0,30.17,ENE,78,0.0,-999.0,70,-99.99,,,0.00,weatherlink.com 1.10,2013-07-09 06:40:00,
2013-07-09 02:55:00,79.4,69.0,30.17,ENE,78,0.0,-999.0,71,-99.99,,,0.00,weatherlink.com 1.10,2013-07-09 06:55:00,
2013-07-09 03:10:00,79.2,69.0,30.17,ENE,78,1.0,-999.0,71,-99.99,,,0.00,weatherlink.com 1.10,2013-07-09 07:10:00,
2013-07-09 03:25:00,79.2,69.0,30.17,ENE,78,0.0,-999.0,71,-99.99,,,0.00,weatherlink.com 1.10,2013-07-09 07:25:00,
2013-07-09 03:40:00,79.0,69.0,30.17,ENE,78,0.0,-999.0,71,-99.99,,,0.00,weatherlink.com 1.10,2013-07-09 07:40:00,
2013-07-09 03:55:00,78.8,69.0,30.17,ENE,78,0.0,-999.0,71,-99.99,,,0.00,weatherlink.com 1.10,2013-07-09 07:55:00,
2013-07-09 04:10:00,78.5,69.0,30.17,ENE,78,0.0,-999.0,72,-99.99,,,0.00,weatherlink.com 1.10,2013-07-09 08:10:00,
2013-07-09 04:25:00,78.1,68.0,30.17,ENE,78,0.0,-999.0,72,-99.99,,,0.00,weatherlink.com 1.10,2013-07-09 08:25:00,
2013-07-09 04:40:00,77.7,68.0,30.17,ENE,78,0.0,-999.0,73,-99.99,,,0.00,weatherlink.com 1.10,2013-07-09 08:40:00,
2013-07-09 04:55:00,77.2,68.0,30.18,ENE,78,0.0,-999.0,74,-99.99,,,0.00,weatherlink.com 1.10,2013-07-09 08:55:00,
2013-07-09 05:10:00,76.7,68.0,30.17,ENE,78,0.0,-999.0,75,-99.99,,,0.00,weatherlink.com 1.10,2013-07-09 09:10:00,
2013-07-09 05:25:00,76.3,69.0,30.17,ENE,78,0.0,-999.0,77,-99.99,,,0.00,weatherlink.com 1.10,2013-07-09 09:25:00,
2013-07-09 05:40:00,76.0,68.0,30.17,ENE,78,0.0,-999.0,77,-99.99,,,0.00,weatherlink.com 1.10,2013-07-09 09:40:00,
2013-07-09 05:55:00,75.8,68.0,30.17,ENE,78,0.0,-999.0,77,-99.99,,,0.00,weatherlink.com 1.10,2013-07-09 09:55:00,
2013-07-09 06:10:00,76.1,69.0,30.17,ENE,78,0.0,-999.0,79,-99.99,,,0.00,weatherlink.com 1.10,2013-07-09 10:10:00,
2013-07-09 06:25:00,75.8,69.0,30.17,ENE,78,0.0,-999.0,79,-99.99,,,0.00,weatherlink.com 1.10,2013-07-09 10:25:00,
2013-07-09 06:41:00,75.4,69.0,30.17,ENE,78,0.0,-999.0,80,-99.99,,,0.00,weatherlink.com 1.10,2013-07-09 10:41:00,
2013-07-09 06:55:00,75.8,69.0,30.18,ENE,78,0.0,-999.0,80,-99.99,,,0.00,weatherlink.com 1.10,2013-07-09 10:55:00,
2013-07-09 07:10:00,76.0,70.0,30.18,ENE,78,0.0,-999.0,81,-99.99,,,0.00,weatherlink.com 1.10,2013-07-09 11:10:00,
2013-07-09 07:25:00,76.5,70.0,30.18,ENE,78,0.0,-999.0,81,-99.99,,,0.00,weatherlink.com 1.10,2013-07-09 11:25:00,
2013-07-09 07:41:00,76.5,71.0,30.18,ENE,78,0.0,-999.0,82,-99.99,,,0.00,weatherlink.com 1.10,2013-07-09 11:41:00,
2013-07-09 07:56:00,76.7,71.0,30.18,ENE,78,0.0,-999.0,82,-99.99,,,0.00,weatherlink.com 1.10,2013-07-09 11:56:00,
2013-07-09 08:11:00,77.0,71.0,30.18,ENE,78,0.0,-999.0,81,-99.99,,,0.00,weatherlink.com 1.10,2013-07-09 12:11:00,
2013-07-09 08:26:00,77.6,71.0,30.19,ENE,78,0.0,-999.0,81,-99.99,,,0.00,weatherlink.com 1.10,2013-07-09 12:26:00,
2013-07-09 08:41:00,78.1,72.0,30.19,ENE,78,0.0,-999.0,80,-99.99,,,0.00,weatherlink.com 1.10,2013-07-09 12:41:00,
2013-07-09 08:56:00,78.8,71.0,30.20,ENE,78,0.0,-999.0,77,-99.99,,,0.00,weatherlink.com 1.10,2013-07-09 12:56:00,
2013-07-09 09:11:00,79.0,70.0,30.20,East,81,0.0,-999.0,73,-99.99,,,0.00,weatherlink.com 1.10,2013-07-09 13:11:00,
2013-07-09 09:26:00,79.4,69.0,30.20,East,80,0.0,-999.0,70,-99.99,,,0.00,weatherlink.com 1.10,2013-07-09 13:26:00,
2013-07-09 09:41:00,79.9,68.0,30.20,ESE,113,0.0,-999.0,66,-99.99,,,0.00,weatherlink.com 1.10,2013-07-09 13:41:00,
2013-07-09 09:56:00,81.2,69.0,30.20,ESE,113,0.0,-999.0,67,-99.99,,,0.00,weatherlink.com 1.10,2013-07-09 13:56:00,
2013-07-09 10:11:00,81.6,68.0,30.21,East,83,0.0,-999.0,63,-99.99,,,0.00,weatherlink.com 1.10,2013-07-09 14:11:00,
2013-07-09 10:26:00,82.4,68.0,30.21,ENE,70,0.0,-999.0,61,-99.99,,,0.00,weatherlink.com 1.10,2013-07-09 14:26:00,
2013-07-09 10:41:00,83.0,68.0,30.21,NE,50,0.0,-999.0,61,-99.99,,,0.00,weatherlink.com 1.10,2013-07-09 14:41:00,
2013-07-09 10:56:00,83.8,69.0,30.22,East,81,1.0,-999.0,62,-99.99,,,0.00,weatherlink.com 1.10,2013-07-09 14:56:00,
2013-07-09 11:11:00,84.1,69.0,30.22,NNE,25,0.0,-999.0,61,-99.99,,,0.00,weatherlink.com 1.10,2013-07-09 15:11:00,
2013-07-09 11:26:00,84.9,68.0,30.22,NE,41,0.0,-999.0,58,-99.99,,,0.00,weatherlink.com 1.10,2013-07-09 15:26:00,
2013-07-09 11:41:00,85.9,68.0,30.22,ENE,68,0.0,-999.0,56,-99.99,,,0.00,weatherlink.com 1.10,2013-07-09 15:41:00,
2013-07-09 11:56:00,86.1,68.0,30.22,ENE,74,1.0,-999.0,55,-99.99,,,0.00,weatherlink.com 1.10,2013-07-09 15:56:00,
2013-07-09 12:11:00,86.5,69.0,30.21,East,92,0.0,-999.0,57,-99.99,,,0.00,weatherlink.com 1.10,2013-07-09 16:11:00,
2013-07-09 12:26:00,87.6,70.0,30.21,East,80,0.0,-999.0,57,-99.99,,,0.00,weatherlink.com 1.10,2013-07-09 16:26:00,
2013-07-09 12:41:00,88.4,71.0,30.21,WNW,282,0.0,-999.0,56,-99.99,,,0.00,weatherlink.com 1.10,2013-07-09 16:41:00,
2013-07-09 12:58:00,89.0,71.0,30.21,ESE,116,1.0,-999.0,56,-99.99,,,0.00,weatherlink.com 1.10,2013-07-09 16:58:00,
2013-07-09 13:11:00,89.0,71.0,30.21,WSW,254,2.0,-999.0,56,-99.99,,,0.00,weatherlink.com 1.10,2013-07-09 17:11:00,
2013-07-09 13:26:00,89.7,71.0,30.21,NW,308,4.0,-999.0,55,-99.99,,,0.00,weatherlink.com 1.10,2013-07-09 17:26:00,
2013-07-09 13:41:00,90.3,71.0,30.20,East,81,7.0,-999.0,53,-99.99,,,0.00,weatherlink.com 1.10,2013-07-09 17:41:00,
2013-07-09 13:56:00,89.3,72.0,30.20,NNE,26,3.0,-999.0,56,-99.99,,,0.00,weatherlink.com 1.10,2013-07-09 17:56:00,
2013-07-09 14:11:00,89.0,71.0,30.20,NW,323,0.0,-999.0,55,-99.99,,,0.00,weatherlink.com 1.10,2013-07-09 18:11:00,
2013-07-09 14:26:00,89.5,71.0,30.20,SE,143,0.0,-999.0,54,-99.99,,,0.00,weatherlink.com 1.10,2013-07-09 18:26:00,
2013-07-09 14:41:00,89.0,71.0,30.19,NW,324,3.0,-999.0,55,-99.99,,,0.00,weatherlink.com 1.10,2013-07-09 18:41:00,
2013-07-09 14:56:00,89.0,70.0,30.18,WNW,301,2.0,-999.0,54,-99.99,,,0.00,weatherlink.com 1.10,2013-07-09 18:56:00,
2013-07-09 15:11:00,88.6,69.0,30.17,ESE,107,1.0,-999.0,52,-99.99,,,0.00,weatherlink.com 1.10,2013-07-09 19:11:00,
2013-07-09 15:26:00,88.8,69.0,30.17,ESE,112,1.0,-999.0,53,-99.99,,,0.00,weatherlink.com 1.10,2013-07-09 19:26:00,
2013-07-09 15:41:00,89.0,69.0,30.16,East,88,2.0,-999.0,52,-99.99,,,0.00,weatherlink.com 1.10,2013-07-09 19:41:00,
2013-07-09 15:56:00,89.0,69.0,30.15,WNW,298,2.0,-999.0,52,-99.99,,,0.00,weatherlink.com 1.10,2013-07-09 19:56:00,
2013-07-09 16:11:00,89.3,69.0,30.15,SSW,212,1.0,-999.0,51,-99.99,,,0.00,weatherlink.com 1.10,2013-07-09 20:11:00,
2013-07-09 16:26:00,88.0,69.0,30.16,NNW,340,0.0,-999.0,53,-99.99,,,0.00,weatherlink.com 1.10,2013-07-09 20:26:00,
2013-07-09 16:41:00,88.0,69.0,30.15,NW,307,2.0,-999.0,54,-99.99,,,0.00,weatherlink.com 1.10,2013-07-09 20:41:00,
2013-07-09 16:56:00,87.0,69.0,30.15,North,10,2.0,-999.0,55,-99.99,,,0.00,weatherlink.com 1.10,2013-07-09 20:56:00,
2013-07-09 17:11:00,86.5,68.0,30.15,WNW,298,3.0,-999.0,54,-99.99,,,0.00,weatherlink.com 1.10,2013-07-09 21:11:00,
2013-07-09 17:26:00,85.7,69.0,30.15,ESE,106,1.0,-999.0,57,-99.99,,,0.00,weatherlink.com 1.10,2013-07-09 21:26:00,
2013-07-09 17:41:00,85.5,69.0,30.14,East,92,0.0,-999.0,58,-99.99,,,0.00,weatherlink.com 1.10,2013-07-09 21:41:00,
2013-07-09 17:56:00,84.9,68.0,30.14,East,95,2.0,-999.0,57,-99.99,,,0.00,weatherlink.com 1.10,2013-07-09 21:56:00,
2013-07-09 18:11:00,84.7,68.0,30.14,NE,37,2.0,-999.0,58,-99.99,,,0.00,weatherlink.com 1.10,2013-07-09 22:11:00,
2013-07-09 18:26:00,85.1,69.0,30.15,NNE,29,2.0,-999.0,58,-99.99,,,0.00,weatherlink.com 1.10,2013-07-09 22:26:00,
2013-07-09 18:41:00,84.9,68.0,30.15,NNE,26,2.0,-999.0,58,-99.99,,,0.00,weatherlink.com 1.10,2013-07-09 22:41:00,
2013-07-09 18:56:00,84.7,69.0,30.15,ENE,61,0.0,-999.0,59,-99.99,,,0.00,weatherlink.com 1.10,2013-07-09 22:56:00,
2013-07-09 19:11:00,84.3,69.0,30.14,East,89,2.0,-999.0,60,-99.99,,,0.00,weatherlink.com 1.10,2013-07-09 23:11:00,
2013-07-09 19:26:00,84.0,69.0,30.14,ENE,67,2.0,-999.0,60,-99.99,,,0.00,weatherlink.com 1.10,2013-07-09 23:26:00,
2013-07-09 19:41:00,83.6,69.0,30.14,East,87,3.0,-999.0,61,-99.99,,,0.00,weatherlink.com 1.10,2013-07-09 23:41:00,
2013-07-09 19:56:00,82.8,68.0,30.13,East,81,0.0,-999.0,62,-99.99,,,0.00,weatherlink.com 1.10,2013-07-09 23:56:00,
2013-07-09 20:11:00,82.4,69.0,30.14,ESE,105,0.0,-999.0,63,-99.99,,,0.00,weatherlink.com 1.10,2013-07-10 00:11:00,
2013-07-09 20:26:00,82.0,69.0,30.13,NE,54,0.0,-999.0,64,-99.99,,,0.00,weatherlink.com 1.10,2013-07-10 00:26:00,
2013-07-09 20:41:00,81.8,68.0,30.12,ENE,76,0.0,-999.0,64,-99.99,,,0.00,weatherlink.com 1.10,2013-07-10 00:41:00,
2013-07-09 20:56:00,81.8,69.0,30.12,East,87,0.0,-999.0,65,-99.99,,,0.00,weatherlink.com 1.10,2013-07-10 00:56:00,
2013-07-09 21:11:00,81.6,69.0,30.13,ENE,64,1.0,-999.0,66,-99.99,,,0.00,weatherlink.com 1.10,2013-07-10 01:11:00,
2013-07-09 21:26:00,81.4,69.0,30.14,NE,49,0.0,-999.0,65,-99.99,,,0.00,weatherlink.com 1.10,2013-07-10 01:26:00,
2013-07-09 21:41:00,81.4,69.0,30.15,ENE,60,0.0,-999.0,66,-99.99,,,0.00,weatherlink.com 1.10,2013-07-10 01:41:00,
2013-07-09 21:56:00,81.1,69.0,30.15,ENE,72,2.0,-999.0,66,-99.99,,,0.00,weatherlink.com 1.10,2013-07-10 01:56:00,
2013-07-09 22:11:00,80.9,68.0,30.16,East,81,0.0,-999.0,66,-99.99,,,0.00,weatherlink.com 1.10,2013-07-10 02:11:00,
2013-07-09 22:26:00,80.9,69.0,30.16,East,85,0.0,-999.0,67,-99.99,,,0.00,weatherlink.com 1.10,2013-07-10 02:26:00,
2013-07-09 22:41:00,80.7,68.0,30.16,East,95,1.0,-999.0,66,-99.99,,,0.00,weatherlink.com 1.10,2013-07-10 02:41:00,
2013-07-09 22:56:00,80.3,68.0,30.15,NE,54,0.0,-999.0,66,-99.99,,,0.00,weatherlink.com 1.10,2013-07-10 02:56:00,
2013-07-09 23:11:00,80.1,67.0,30.15,ENE,75,0.0,-999.0,65,-99.99,,,0.00,weatherlink.com 1.10,2013-07-10 03:11:00,
2013-07-09 23:26:00,79.9,67.0,30.15,ENE,73,0.0,-999.0,64,-99.99,,,0.00,weatherlink.com 1.10,2013-07-10 03:26:00,
2013-07-09 23:41:00,79.8,67.0,30.15,ENE,76,0.0,-999.0,65,-99.99,,,0.00,weatherlink.com 1.10,2013-07-10 03:41:00,
2013-07-09 23:56:00,79.8,67.0,30.15,ENE,77,0.0,-999.0,65,-99.99,,,0.00,weatherlink.com 1.10,2013-07-10 03:56:00,